Location: Peterborough
(44.3091°N, 78.3197°W)
Time: 05:23:48
(UTC-04:00)

Vanguard 3 - Pass Details

Date: 01 March 2024
Orbit: 510 x 3236 km, 33.3° (Epoch: 12 April)

Event Time Altitude Azimuth Distance (km) Brightness Sun altitude
Rises 16:16:34 0° 184° (S) 5,607 11.9 17.0°
Reaches altitude 10° 16:21:49 10° 167° (SSE) 5,082 11.4 16.1°
Maximum altitude 16:30:52 18° 131° (SE) 5,039 11.0 14.7°
Drops below altitude 10° 16:41:26 10° 96° (E) 6,114 11.1 13.0°
Sets 16:48:44 0° 82° (E) 7,198 11.3 11.8°
